Regional Weather Roundup
Issued by NWS

Home | Current Version | Previous Version | Text Only | Print | Product List | Glossary On
Versions: 1 2 3 4 5 6 7 8 9 10 11 12 13 14 15 16 17 18 19 20 21 22 23 24 25 26 27 28 29 30 31 32 33 34 35 36 37 38 39 40 41 42 43 44 45 46 47 48 49 50
000
ASUS43 KMKX 260800
RWRWI

WISCONSIN REGIONAL WEATHER ROUNDUP
NATIONAL WEATHER SERVICE MILWAUKEE/SULLIVAN WI
200 AM CST FRI DEC 26 2014

NOTE: "FAIR" INDICATES FEW OR NO CLOUDS BELOW 12,000 FEET WITH NO
SIGNIFICANT WEATHER AND/OR OBSTRUCTIONS TO VISIBILITY.

WIZ001-002-006>008-014>016-023>028-260900-
NORTHWEST WISCONSIN

CITY           SKY/WX    TMP DP  RH WIND       PRES   REMARKS
SUPERIOR ARPT  CLOUDY    31  27  82 CALM      29.92F
ASHLAND        LGT SNOW  31  30  96 CALM      29.92R FOG
HAYWARD        CLOUDY    30  28  92 CALM      29.89R FOG
SIREN          CLOUDY    31  31  99 NE3       29.89R FOG
CUMBERLAND     CLOUDY    30  30 100 NE3       29.86S FOG
RICE LAKE      CLOUDY    31  30  96 N5        29.89R FOG     WCI  26
CHETEK         CLOUDY    31  30  94 CALM      29.87S
LADYSMITH      CLOUDY    32  30  94 NE5       29.88S WCI  27
EAU CLAIRE     NOT AVBL
MENOMONIE      FAIR      28  27  96 CALM      29.86S FOG
NEW RICHMOND   CLOUDY    31  31 100 N6        29.86S FOG     WCI  25
OSCEOLA        CLOUDY    32  32 100 CALM      29.90S FOG
$$

WIZ003>005-009-010-017-018-260900-
NORTH CENTRAL WISCONSIN

CITY           SKY/WX    TMP DP  RH WIND       PRES   REMARKS
MANITOWISH WTR CLOUDY    27  27 100 CALM      29.87R FOG
ARBOR VITAE    FOG       26  25  94 CALM      29.87S VSB 3/4
WOODRUFF       FOG       26  25  94 CALM      29.87S VSB 3/4
RHINELANDER    CLOUDY    29  27  92 CALM      29.88S FOG
EAGLE RIVER    CLOUDY    27  27 100 CALM      29.88R FOG
LAND O LAKES   MOCLDY    28  28 100 CALM      29.89S FOG
PHILLIPS       CLOUDY    29  28  97 E3        29.86F
TOMAHAWK       CLOUDY    29  28  95 CALM      29.87F FOG
MEDFORD        PTCLDY    25  24  97 E6        29.85S FOG     WCI  18
MERRILL        CLOUDY    28  28 100 CALM      29.87S FOG
$$

WIZ029-030-035-036-043>047-260900-
CENTRAL WISCONSIN

CITY           SKY/WX    TMP DP  RH WIND       PRES   REMARKS
WAUSAU         FOG       27  25  92 CALM      29.87R VSB 1
MOSINEE        PTCLDY    27  27 100 E6        29.87F FOG     WCI  20
MARSHFIELD     PTCLDY    28  25  88 NE3       29.87R FOG
STEVENS POINT  PTCLDY    27  26  99 CALM      29.88S FOG
WAUPACA        PTCLDY    28  27  95 CALM      29.91R FOG
WAUTOMA        NOT AVBL
WISC RAPIDS    PTCLDY    29  27  92 CALM      29.89R
CAMP DOUGLAS   NOT AVBL
$$

WIZ011>013-019>022-031-037>040-048>050-260900-
NORTHEAST WISCONSIN

CITY           SKY/WX    TMP DP  RH WIND       PRES   REMARKS
ANTIGO         PTCLDY    22  22 100 SE3       29.87S FOG
SHAWANO          N/A     30  28  94 CALM      29.91S FOG
OCONTO         MOCLDY    28  28 100 CALM      29.93R
STURGEON BAY   CLOUDY    34  28  80 CALM      29.95S
GREEN BAY      MOCLDY    31  30  96 CALM      29.92S FOG
MANITOWOC      NOT AVBL
APPLETON       PTCLDY    32  32 100 S6        29.91S WCI  26
CLINTONVILLE   PTCLDY    27  27 100 CALM      29.91R FOG
OSHKOSH        PTCLDY    34  31  88 S10       29.91S WCI  26
$$

WIZ032>034-041-042-053>061-260900-
SOUTHWEST WISCONSIN

CITY           SKY/WX    TMP DP  RH WIND       PRES   REMARKS
LA CROSSE      PTCLDY    29  28  96 E3        29.85R
SPARTA         PTCLDY    27  27 100 CALM      29.86R
VIROQUA        PTCLDY    35  35 100 S10       29.83S WCI  27
BOSCOBEL       MOCLDY    35  30  82 CALM      29.87S
PRAIRIE DU CHI MOCLDY    41  30  65 SE5       29.85S
PLATTEVILLE    MOCLDY    37  33  86 CALM      29.88S
$$

WIZ056-057-062-063-064-067-068-260900-
SOUTH CENTRAL WISCONSIN

CITY           SKY/WX    TMP DP  RH WIND       PRES   REMARKS
REEDSBURG      PTCLDY    37  33  83 S10       29.87S WCI  30
BARABOO/DELLS  PTCLDY    37  32  82 S10       29.88R WCI  30
LONE ROCK      NOT AVBL
MINERAL POINT  MOCLDY    36  34  93 SE8       29.87S WCI  29
MADISON        CLOUDY    38  33  82 S10       29.91R WCI  31
MIDDLETON      CLOUDY    39  33  81 S14       29.89S WCI  31
WATERTOWN      MOCLDY    36  34  94 S8        29.92S WCI  29
MONROE         CLOUDY    36  34  93 S17       29.90S WCI  25
JANESVILLE     MOCLDY    37  34  87 S8        29.92F WCI  31
$$

WIZ051-052-058>065-066-070>072-260900-
SOUTHEAST WISCONSIN

CITY           SKY/WX    TMP DP  RH WIND       PRES   REMARKS
MILWAUKEE      MOCLDY    38  32  79 SW10      29.97S WCI  31
WAUKESHA       PTCLDY    36  32  87 S9G16     29.95S WCI  29
MILWAUKEE/TIMM MOCLDY    37  32  81 S9        29.96S WCI  31
RACINE         CLOUDY    40  33  76 S8        29.99S WCI  34
BURLINGTON     MOCLDY    36  32  85 S14       29.96S WCI  27
KENOSHA        MOCLDY    40  34  79 SW12      29.97S WCI  33
FOND DU LAC    PTCLDY    37  32  82 S13       29.92R WCI  29
SHEBOYGAN      PTCLDY    36  32  85 S10       29.94S WCI  28
WEST BEND      PTCLDY    36  32  87 S7        29.93F WCI  30
JUNEAU         PTCLDY    34  32  92 SE8       29.92S WCI  27
$$

LSZ147-162-260900-
LAKE SUPERIOR

STATION/POSITION TIME  TEMP    WIND        PRES    WAVE
                       AIR SEA DIR/SP/G            HT/PER
                 (UTC) (F)     (DEG/KT/KT) (MB)    (FT/S)
DEVILS ISLAND    0700   35     350/  5/  5 1014.0R
PORT WING        0700   31      CALM  /  2 1013.5R
SAXON HARBOR     0700   32        CALM     1012.9
$$

LMZ867-665-643>646-260900-
LAKE MICHIGAN

STATION/POSITION TIME  TEMP    WIND        PRES    WAVE
                       AIR SEA DIR/SP/G            HT/PER
                 (UTC) (F)     (DEG/KT/KT) (MB)    (FT/S)
CHAMBERS ISLAND  0700   29        CALM     1013.9F
NORTHPORT PIER   0702   32        CALM     1014.2S
SISTER BAY       0713          170/  6/  7   N/A
ALGOMA LAKESHORE 0715             CALM       N/A
KEWAUNEE LAKESHO 0700   33      CALM  /  1 1013.1F
SHEBOYGAN LAKESH 0700   40 37  190/ 11/ 13 1014.8F
PORT WASHINGTON  0700   40     200/  4/  8 1015.2
MILWAUKEE LAKESH 0700   40     210/  9/ 11   N/A
KENOSHA   LAKESH 0700   40     200/  9/ 17 1015.2S
$$

TC  - TEMPERATURE IN CELSIUS
VSB - VISIBILITY IN STATUTE MILES
WCI - WIND CHILL INDEX
HX  - HEAT INDEX




USA.gov is the U.S. government's official web portal to all federal, state and local government web resources and services.